Year,Month,Day,Hour,Minute,Value (Times are PST for windgust in km/hr)
2007,09,29,00,00,0.00
2007,09,29,00,01,0.00
2007,09,29,00,02,0.00
2007,09,29,00,03,0.00
2007,09,29,00,04,0.00
2007,09,29,00,05,0.00
2007,09,29,00,06,0.00
2007,09,29,00,07,0.00
2007,09,29,00,08,0.00
2007,09,29,00,09,0.00
2007,09,29,00,10,0.00
2007,09,29,00,11,0.00
2007,09,29,00,12,0.00
2007,09,29,00,13,0.00
2007,09,29,00,14,0.00
2007,09,29,00,15,0.00
2007,09,29,00,16,0.00
2007,09,29,00,17,0.00
2007,09,29,00,18,0.00
2007,09,29,00,19,0.00
2007,09,29,00,20,0.00
2007,09,29,00,21,0.00
2007,09,29,00,22,0.00
2007,09,29,00,23,0.00
2007,09,29,00,24,0.00
2007,09,29,00,25,0.00
2007,09,29,00,26,0.00
2007,09,29,00,27,0.00
2007,09,29,00,28,0.00
2007,09,29,00,29,0.00
2007,09,29,00,30,0.00
2007,09,29,00,31,0.00
2007,09,29,00,32,0.00
2007,09,29,00,33,0.00
2007,09,29,00,34,0.00
2007,09,29,00,35,0.00
2007,09,29,00,36,1.60
2007,09,29,00,37,1.60
2007,09,29,00,38,1.60
2007,09,29,00,39,1.60
2007,09,29,00,40,1.60
2007,09,29,00,41,0.00
2007,09,29,00,42,0.00
2007,09,29,00,43,0.00
2007,09,29,00,44,0.00
2007,09,29,00,45,1.60
2007,09,29,00,46,0.00
2007,09,29,00,47,0.00
2007,09,29,00,48,0.00
2007,09,29,00,49,0.00
2007,09,29,00,50,0.00
2007,09,29,00,51,0.00
2007,09,29,00,52,0.00
2007,09,29,00,53,0.00
2007,09,29,00,54,0.00
2007,09,29,00,55,0.00
2007,09,29,00,56,0.00
2007,09,29,00,57,0.00
2007,09,29,00,58,0.00
2007,09,29,00,59,0.00
2007,09,29,01,00,0.00
2007,09,29,01,01,0.00
2007,09,29,01,02,0.00
2007,09,29,01,03,0.00
2007,09,29,01,04,0.00
2007,09,29,01,05,0.00
2007,09,29,01,06,0.00
2007,09,29,01,07,0.00
2007,09,29,01,08,0.00
2007,09,29,01,09,0.00
2007,09,29,01,10,0.00
2007,09,29,01,11,0.00
2007,09,29,01,12,0.00
2007,09,29,01,13,0.00
2007,09,29,01,14,0.00
2007,09,29,01,15,0.00
2007,09,29,01,16,0.00
2007,09,29,01,17,0.00
2007,09,29,01,18,0.00
2007,09,29,01,19,0.00
2007,09,29,01,20,0.00
2007,09,29,01,21,0.00
2007,09,29,01,22,0.00
2007,09,29,01,23,0.00
2007,09,29,01,24,0.00
2007,09,29,01,25,0.00
2007,09,29,01,26,0.00
2007,09,29,01,27,0.00
2007,09,29,01,28,0.00
2007,09,29,01,29,0.00
2007,09,29,01,30,0.00
2007,09,29,01,31,0.00
2007,09,29,01,32,0.00
2007,09,29,01,33,0.00
2007,09,29,01,34,0.00
2007,09,29,01,35,0.00
2007,09,29,01,36,0.00
2007,09,29,01,37,0.00
2007,09,29,01,38,0.00
2007,09,29,01,39,0.00
2007,09,29,01,40,0.00
2007,09,29,01,41,0.00
2007,09,29,01,42,0.00
2007,09,29,01,43,0.00
2007,09,29,01,44,0.00
2007,09,29,01,45,0.00
2007,09,29,01,46,0.00
2007,09,29,01,47,0.00
2007,09,29,01,48,0.00
2007,09,29,01,49,0.00
2007,09,29,01,50,0.00
2007,09,29,01,51,1.60
2007,09,29,01,52,1.60
2007,09,29,01,53,0.00
2007,09,29,01,54,0.00
2007,09,29,01,55,0.00
2007,09,29,01,56,0.00
2007,09,29,01,57,0.00
2007,09,29,01,58,0.00
2007,09,29,01,59,0.00
2007,09,29,02,00,1.60
2007,09,29,02,01,0.00
2007,09,29,02,02,0.00
2007,09,29,02,03,0.00
2007,09,29,02,04,0.00
2007,09,29,02,05,0.00
2007,09,29,02,06,0.00
2007,09,29,02,07,0.00
2007,09,29,02,08,0.00
2007,09,29,02,09,0.00
2007,09,29,02,10,0.00
2007,09,29,02,11,0.00
2007,09,29,02,12,0.00
2007,09,29,02,13,0.00
2007,09,29,02,14,0.00
2007,09,29,02,15,0.00
2007,09,29,02,16,0.00
2007,09,29,02,17,0.00
2007,09,29,02,18,0.00
2007,09,29,02,19,0.00
2007,09,29,02,20,0.00
2007,09,29,02,21,0.00
2007,09,29,02,22,0.00
2007,09,29,02,23,1.60
2007,09,29,02,24,3.20
2007,09,29,02,25,3.20
2007,09,29,02,26,0.00
2007,09,29,02,27,0.00
2007,09,29,02,28,0.00
2007,09,29,02,29,0.00
2007,09,29,02,30,0.00
2007,09,29,02,31,0.00
2007,09,29,02,32,0.00
2007,09,29,02,33,0.00
2007,09,29,02,34,1.60
2007,09,29,02,35,1.60
2007,09,29,02,36,0.00
2007,09,29,02,37,1.60
2007,09,29,02,38,0.00
2007,09,29,02,39,0.00
2007,09,29,02,40,0.00
2007,09,29,02,41,0.00
2007,09,29,02,42,0.00
2007,09,29,02,43,1.60
2007,09,29,02,44,1.60
2007,09,29,02,45,3.20
2007,09,29,02,46,1.60
2007,09,29,02,47,0.00
2007,09,29,02,48,0.00
2007,09,29,02,49,0.00
2007,09,29,02,50,1.60
2007,09,29,02,51,0.00
2007,09,29,02,52,1.60
2007,09,29,02,53,0.00
2007,09,29,02,54,0.00
2007,09,29,02,55,0.00
2007,09,29,02,56,0.00
2007,09,29,02,57,1.60
2007,09,29,02,58,0.00
2007,09,29,02,59,0.00
2007,09,29,03,00,1.60
2007,09,29,03,01,0.00
2007,09,29,03,02,0.00
2007,09,29,03,03,0.00
2007,09,29,03,04,0.00
2007,09,29,03,05,0.00
2007,09,29,03,06,0.00
2007,09,29,03,07,0.00
2007,09,29,03,08,0.00
2007,09,29,03,09,0.00
2007,09,29,03,10,0.00
2007,09,29,03,11,0.00
2007,09,29,03,12,0.00
2007,09,29,03,13,0.00
2007,09,29,03,14,1.60
2007,09,29,03,15,0.00
2007,09,29,03,16,0.00
2007,09,29,03,17,1.60
2007,09,29,03,18,1.60
2007,09,29,03,19,0.00
2007,09,29,03,20,0.00
2007,09,29,03,21,0.00
2007,09,29,03,22,0.00
2007,09,29,03,23,1.60
2007,09,29,03,24,1.60
2007,09,29,03,25,0.00
2007,09,29,03,26,0.00
2007,09,29,03,27,0.00
2007,09,29,03,28,0.00
2007,09,29,03,29,1.60
2007,09,29,03,30,1.60
2007,09,29,03,31,0.00
2007,09,29,03,32,0.00
2007,09,29,03,33,0.00
2007,09,29,03,34,1.60
2007,09,29,03,35,0.00
2007,09,29,03,36,0.00
2007,09,29,03,37,0.00
2007,09,29,03,38,0.00
2007,09,29,03,39,0.00
2007,09,29,03,40,0.00
2007,09,29,03,41,1.60
2007,09,29,03,42,0.00
2007,09,29,03,43,1.60
2007,09,29,03,44,1.60
2007,09,29,03,45,0.00
2007,09,29,03,46,0.00
2007,09,29,03,47,0.00
2007,09,29,03,48,1.60
2007,09,29,03,49,0.00
2007,09,29,03,50,0.00
2007,09,29,03,51,0.00
2007,09,29,03,52,0.00
2007,09,29,03,53,0.00
2007,09,29,03,54,0.00
2007,09,29,03,55,0.00
2007,09,29,03,56,0.00
2007,09,29,03,57,0.00
2007,09,29,03,58,0.00
2007,09,29,03,59,1.60
2007,09,29,04,00,1.60
2007,09,29,04,01,1.60
2007,09,29,04,02,0.00
2007,09,29,04,03,3.20
2007,09,29,04,04,1.60
2007,09,29,04,05,0.00
2007,09,29,04,06,0.00
2007,09,29,04,07,0.00
2007,09,29,04,08,4.80
2007,09,29,04,09,1.60
2007,09,29,04,10,3.20
2007,09,29,04,11,1.60
2007,09,29,04,12,1.60
2007,09,29,04,13,1.60
2007,09,29,04,14,1.60
2007,09,29,04,15,3.20
2007,09,29,04,16,3.20
2007,09,29,04,17,4.80
2007,09,29,04,18,3.20
2007,09,29,04,19,3.20
2007,09,29,04,20,1.60
2007,09,29,04,21,1.60
2007,09,29,04,22,0.00
2007,09,29,04,23,1.60
2007,09,29,04,24,4.80
2007,09,29,04,25,3.20
2007,09,29,04,26,1.60
2007,09,29,04,27,3.20
2007,09,29,04,28,1.60
2007,09,29,04,29,1.60
2007,09,29,04,30,4.80
2007,09,29,04,31,4.80
2007,09,29,04,32,3.20
2007,09,29,04,33,1.60
2007,09,29,04,34,4.80
2007,09,29,04,35,3.20
2007,09,29,04,36,1.60
2007,09,29,04,37,0.00
2007,09,29,04,38,1.60
2007,09,29,04,39,0.00
2007,09,29,04,40,1.60
2007,09,29,04,41,4.80
2007,09,29,04,42,1.60
2007,09,29,04,43,3.20
2007,09,29,04,44,1.60
2007,09,29,04,45,1.60
2007,09,29,04,46,1.60
2007,09,29,04,47,3.20
2007,09,29,04,48,0.00
2007,09,29,04,49,1.60
2007,09,29,04,50,3.20
2007,09,29,04,51,3.20
2007,09,29,04,52,6.40
2007,09,29,04,53,1.60
2007,09,29,04,54,0.00
2007,09,29,04,55,1.60
2007,09,29,04,56,3.20
2007,09,29,04,57,3.20
2007,09,29,04,58,1.60
2007,09,29,04,59,1.60
2007,09,29,05,00,1.60
2007,09,29,05,01,4.80
2007,09,29,05,02,6.40
2007,09,29,05,03,4.80
2007,09,29,05,04,4.80
2007,09,29,05,05,3.20
2007,09,29,05,06,6.40
2007,09,29,05,07,9.60
2007,09,29,05,08,6.40
2007,09,29,05,09,3.20
2007,09,29,05,10,11.30
2007,09,29,05,11,6.40
2007,09,29,05,12,3.20
2007,09,29,05,13,4.80
2007,09,29,05,14,9.60
2007,09,29,05,15,6.40
2007,09,29,05,16,8.10
2007,09,29,05,17,9.60
2007,09,29,05,18,6.40
2007,09,29,05,19,6.40
2007,09,29,05,20,9.60
2007,09,29,05,21,8.10
2007,09,29,05,22,16.10
2007,09,29,05,23,8.10
2007,09,29,05,24,8.10
2007,09,29,05,25,8.10
2007,09,29,05,26,6.40
2007,09,29,05,27,4.80
2007,09,29,05,28,9.60
2007,09,29,05,29,4.80
2007,09,29,05,30,3.20
2007,09,29,05,31,8.10
2007,09,29,05,32,6.40
2007,09,29,05,33,6.40
2007,09,29,05,34,9.60
2007,09,29,05,35,6.40
2007,09,29,05,36,9.60
2007,09,29,05,37,9.60
2007,09,29,05,38,14.50
2007,09,29,05,39,8.10
2007,09,29,05,40,4.80
2007,09,29,05,41,9.60
2007,09,29,05,42,6.40
2007,09,29,05,43,8.10
2007,09,29,05,44,9.60
2007,09,29,05,45,4.80
2007,09,29,05,46,4.80
2007,09,29,05,47,9.60
2007,09,29,05,48,11.30
2007,09,29,05,49,6.40
2007,09,29,05,50,9.60
2007,09,29,05,51,11.30
2007,09,29,05,52,11.30
2007,09,29,05,53,12.90
2007,09,29,05,54,6.40
2007,09,29,05,55,8.10
2007,09,29,05,56,8.10
2007,09,29,05,57,6.40
2007,09,29,05,58,6.40
2007,09,29,05,59,4.80
2007,09,29,06,00,6.40
2007,09,29,06,01,6.40
2007,09,29,06,02,3.20
2007,09,29,06,03,4.80
2007,09,29,06,04,3.20
2007,09,29,06,05,3.20
2007,09,29,06,06,8.10
2007,09,29,06,07,8.10
2007,09,29,06,08,6.40
2007,09,29,06,09,4.80
2007,09,29,06,10,6.40
2007,09,29,06,11,8.10
2007,09,29,06,12,4.80
2007,09,29,06,13,6.40
2007,09,29,06,14,3.20
2007,09,29,06,15,4.80
2007,09,29,06,16,12.90
2007,09,29,06,17,6.40
2007,09,29,06,18,11.30
2007,09,29,06,19,16.10
2007,09,29,06,20,11.30
2007,09,29,06,21,16.10
2007,09,29,06,22,11.30
2007,09,29,06,23,16.10
2007,09,29,06,24,8.10
2007,09,29,06,25,6.40
2007,09,29,06,26,3.20
2007,09,29,06,27,14.50
2007,09,29,06,28,6.40
2007,09,29,06,29,17.70
2007,09,29,06,30,9.60
2007,09,29,06,31,9.60
2007,09,29,06,32,8.10
2007,09,29,06,33,9.60
2007,09,29,06,34,16.10
2007,09,29,06,35,24.20
2007,09,29,06,36,19.30
2007,09,29,06,37,16.10
2007,09,29,06,38,19.30
2007,09,29,06,39,11.30
2007,09,29,06,40,17.70
2007,09,29,06,41,30.60
2007,09,29,06,42,17.70
2007,09,29,06,43,25.70
2007,09,29,06,44,22.50
2007,09,29,06,45,11.30
2007,09,29,06,46,19.30
2007,09,29,06,47,14.50
2007,09,29,06,48,14.50
2007,09,29,06,49,14.50
2007,09,29,06,50,9.60
2007,09,29,06,51,8.10
2007,09,29,06,52,8.10
2007,09,29,06,53,9.60
2007,09,29,06,54,9.60
2007,09,29,06,55,19.30
2007,09,29,06,56,16.10
2007,09,29,06,57,16.10
2007,09,29,06,58,24.20
2007,09,29,06,59,20.90
2007,09,29,07,00,19.30
2007,09,29,07,01,17.70
2007,09,29,07,02,8.10
2007,09,29,07,03,16.10
2007,09,29,07,04,8.10
2007,09,29,07,05,8.10
2007,09,29,07,06,17.70
2007,09,29,07,07,9.60
2007,09,29,07,08,8.10
2007,09,29,07,09,9.60
2007,09,29,07,10,11.30
2007,09,29,07,11,16.10
2007,09,29,07,12,14.50
2007,09,29,07,13,17.70
2007,09,29,07,14,9.60
2007,09,29,07,15,8.10
2007,09,29,07,16,19.30
2007,09,29,07,17,14.50
2007,09,29,07,18,6.40
2007,09,29,07,19,0.00
2007,09,29,07,20,17.70
2007,09,29,07,21,8.10
2007,09,29,07,22,4.80
2007,09,29,07,23,8.10
2007,09,29,07,24,4.80
2007,09,29,07,25,6.40
2007,09,29,07,26,17.70
2007,09,29,07,27,11.30
2007,09,29,07,28,16.10
2007,09,29,07,29,16.10
2007,09,29,07,30,4.80
2007,09,29,07,31,6.40
2007,09,29,07,32,6.40
2007,09,29,07,33,6.40
2007,09,29,07,34,6.40
2007,09,29,07,35,16.10
2007,09,29,07,36,9.60
2007,09,29,07,37,3.20
2007,09,29,07,38,4.80
2007,09,29,07,39,3.20
2007,09,29,07,40,6.40
2007,09,29,07,41,9.60
2007,09,29,07,42,8.10
2007,09,29,07,43,6.40
2007,09,29,07,44,6.40
2007,09,29,07,45,4.80
2007,09,29,07,46,4.80
2007,09,29,07,47,16.10
2007,09,29,07,48,16.10
2007,09,29,07,49,11.30
2007,09,29,07,50,9.60
2007,09,29,07,51,9.60
2007,09,29,07,52,6.40
2007,09,29,07,53,8.10
2007,09,29,07,54,8.10
2007,09,29,07,55,8.10
2007,09,29,07,56,11.30
2007,09,29,07,57,4.80
2007,09,29,07,58,6.40
2007,09,29,07,59,8.10
2007,09,29,08,00,4.80
2007,09,29,08,01,1.60
2007,09,29,08,02,1.60
2007,09,29,08,03,4.80
2007,09,29,08,04,4.80
2007,09,29,08,05,11.30
2007,09,29,08,06,6.40
2007,09,29,08,07,3.20
2007,09,29,08,08,4.80
2007,09,29,08,09,8.10
2007,09,29,08,10,3.20
2007,09,29,08,11,3.20
2007,09,29,08,12,1.60
2007,09,29,08,13,4.80
2007,09,29,08,14,4.80
2007,09,29,08,15,3.20
2007,09,29,08,16,4.80
2007,09,29,08,17,3.20
2007,09,29,08,18,4.80
2007,09,29,08,19,4.80
2007,09,29,08,20,4.80
2007,09,29,08,21,9.60
2007,09,29,08,22,8.10
2007,09,29,08,23,6.40
2007,09,29,08,24,1.60
2007,09,29,08,25,1.60
2007,09,29,08,26,4.80
2007,09,29,08,27,3.20
2007,09,29,08,28,3.20
2007,09,29,08,29,1.60
2007,09,29,08,30,1.60
2007,09,29,08,31,4.80
2007,09,29,08,32,6.40
2007,09,29,08,33,4.80
2007,09,29,08,34,1.60
2007,09,29,08,35,6.40
2007,09,29,08,36,8.10
2007,09,29,08,37,4.80
2007,09,29,08,38,4.80
2007,09,29,08,39,4.80
2007,09,29,08,40,4.80
2007,09,29,08,41,4.80
2007,09,29,08,42,8.10
2007,09,29,08,43,9.60
2007,09,29,08,44,9.60
2007,09,29,08,45,11.30
2007,09,29,08,46,9.60
2007,09,29,08,47,8.10
2007,09,29,08,48,9.60
2007,09,29,08,49,8.10
2007,09,29,08,50,8.10
2007,09,29,08,51,8.10
2007,09,29,08,52,9.60
2007,09,29,08,53,6.40
2007,09,29,08,54,3.20
2007,09,29,08,55,11.30
2007,09,29,08,56,14.50
2007,09,29,08,57,12.90
2007,09,29,08,58,19.30
2007,09,29,08,59,17.70
2007,09,29,09,00,9.60
2007,09,29,09,01,9.60
2007,09,29,09,02,6.40
2007,09,29,09,03,8.10
2007,09,29,09,04,11.30
2007,09,29,09,05,9.60
2007,09,29,09,06,16.10
2007,09,29,09,07,6.40
2007,09,29,09,08,6.40
2007,09,29,09,09,17.70
2007,09,29,09,10,6.40
2007,09,29,09,11,6.40
2007,09,29,09,12,3.20
2007,09,29,09,13,14.50
2007,09,29,09,14,11.30
2007,09,29,09,15,6.40
2007,09,29,09,16,4.80
2007,09,29,09,17,3.20
2007,09,29,09,18,8.10
2007,09,29,09,19,8.10
2007,09,29,09,20,6.40
2007,09,29,09,21,9.60
2007,09,29,09,22,4.80
2007,09,29,09,23,8.10
2007,09,29,09,24,8.10
2007,09,29,09,25,6.40
2007,09,29,09,26,6.40
2007,09,29,09,27,8.10
2007,09,29,09,28,6.40
2007,09,29,09,29,4.80
2007,09,29,09,30,6.40
2007,09,29,09,31,11.30
2007,09,29,09,32,4.80
2007,09,29,09,33,8.10
2007,09,29,09,34,4.80
2007,09,29,09,35,4.80
2007,09,29,09,36,6.40
2007,09,29,09,37,6.40
2007,09,29,09,38,6.40
2007,09,29,09,39,11.30
2007,09,29,09,40,9.60
2007,09,29,09,41,6.40
2007,09,29,09,42,6.40
2007,09,29,09,43,8.10
2007,09,29,09,44,11.30
2007,09,29,09,45,9.60
2007,09,29,09,46,8.10
2007,09,29,09,47,11.30
2007,09,29,09,48,19.30
2007,09,29,09,49,17.70
2007,09,29,09,50,17.70
2007,09,29,09,51,14.50
2007,09,29,09,52,11.30
2007,09,29,09,53,9.60
2007,09,29,09,54,19.30
2007,09,29,09,55,11.30
2007,09,29,09,56,22.50
2007,09,29,09,57,17.70
2007,09,29,09,58,16.10
2007,09,29,09,59,16.10
2007,09,29,10,00,16.10
2007,09,29,10,01,9.60
2007,09,29,10,02,22.50
2007,09,29,10,03,11.30
2007,09,29,10,04,11.30
2007,09,29,10,05,14.50
2007,09,29,10,06,14.50
2007,09,29,10,07,16.10
2007,09,29,10,08,9.60
2007,09,29,10,09,6.40
2007,09,29,10,10,16.10
2007,09,29,10,11,20.90
2007,09,29,10,12,16.10
2007,09,29,10,13,12.90
2007,09,29,10,14,14.50
2007,09,29,10,15,12.90
2007,09,29,10,16,17.70
2007,09,29,10,17,16.10
2007,09,29,10,18,9.60
2007,09,29,10,19,19.30
2007,09,29,10,20,11.30
2007,09,29,10,21,14.50
2007,09,29,10,22,17.70
2007,09,29,10,23,16.10
2007,09,29,10,24,17.70
2007,09,29,10,25,25.70
2007,09,29,10,26,17.70
2007,09,29,10,27,8.10
2007,09,29,10,28,17.70
2007,09,29,10,29,4.80
2007,09,29,10,30,11.30
2007,09,29,10,31,25.70
2007,09,29,10,32,14.50
2007,09,29,10,33,17.70
2007,09,29,10,34,20.90
2007,09,29,10,35,17.70
2007,09,29,10,36,19.30
2007,09,29,10,37,11.30
2007,09,29,10,38,14.50
2007,09,29,10,39,17.70
2007,09,29,10,40,22.50
2007,09,29,10,41,16.10
2007,09,29,10,42,16.10
2007,09,29,10,43,17.70
2007,09,29,10,44,16.10
2007,09,29,10,45,19.30
2007,09,29,10,46,11.30
2007,09,29,10,47,17.70
2007,09,29,10,48,17.70
2007,09,29,10,49,16.10
2007,09,29,10,50,19.30
2007,09,29,10,51,16.10
2007,09,29,10,52,16.10
2007,09,29,10,53,20.90
2007,09,29,10,54,19.30
2007,09,29,10,55,22.50
2007,09,29,10,56,9.60
2007,09,29,10,57,14.50
2007,09,29,10,58,22.50
2007,09,29,10,59,17.70
2007,09,29,11,00,11.30
2007,09,29,11,01,11.30
2007,09,29,11,02,16.10
2007,09,29,11,03,17.70
2007,09,29,11,04,12.90
2007,09,29,11,05,17.70
2007,09,29,11,06,14.50
2007,09,29,11,07,9.60
2007,09,29,11,08,20.90
2007,09,29,11,09,14.50
2007,09,29,11,10,9.60
2007,09,29,11,11,8.10
2007,09,29,11,12,16.10
2007,09,29,11,13,9.60
2007,09,29,11,14,12.90
2007,09,29,11,15,17.70
2007,09,29,11,16,9.60
2007,09,29,11,17,9.60
2007,09,29,11,18,16.10
2007,09,29,11,19,9.60
2007,09,29,11,20,9.60
2007,09,29,11,21,19.30
2007,09,29,11,22,6.40
2007,09,29,11,23,22.50
2007,09,29,11,24,16.10
2007,09,29,11,25,16.10
2007,09,29,11,26,11.30
2007,09,29,11,27,16.10
2007,09,29,11,28,16.10
2007,09,29,11,29,11.30
2007,09,29,11,30,16.10
2007,09,29,11,31,6.40
2007,09,29,11,32,9.60
2007,09,29,11,33,17.70
2007,09,29,11,34,8.10
2007,09,29,11,35,14.50
2007,09,29,11,36,11.30
2007,09,29,11,37,14.50
2007,09,29,11,38,17.70
2007,09,29,11,39,17.70
2007,09,29,11,40,17.70
2007,09,29,11,41,11.30
2007,09,29,11,42,19.30
2007,09,29,11,43,9.60
2007,09,29,11,44,16.10
2007,09,29,11,45,8.10
2007,09,29,11,46,11.30
2007,09,29,11,47,9.60
2007,09,29,11,48,17.70
2007,09,29,11,49,16.10
2007,09,29,11,50,20.90
2007,09,29,11,51,8.10
2007,09,29,11,52,16.10
2007,09,29,11,53,11.30
2007,09,29,11,54,17.70
2007,09,29,11,55,8.10
2007,09,29,11,56,9.60
2007,09,29,11,57,8.10
2007,09,29,11,58,6.40
2007,09,29,11,59,17.70
2007,09,29,12,00,17.70
2007,09,29,12,01,14.50
2007,09,29,12,02,8.10
2007,09,29,12,03,4.80
2007,09,29,12,04,8.10
2007,09,29,12,05,11.30
2007,09,29,12,06,14.50
2007,09,29,12,07,19.30
2007,09,29,12,08,8.10
2007,09,29,12,09,19.30
2007,09,29,12,10,17.70
2007,09,29,12,11,22.50
2007,09,29,12,12,20.90
2007,09,29,12,13,11.30
2007,09,29,12,14,17.70
2007,09,29,12,15,16.10
2007,09,29,12,16,6.40
2007,09,29,12,17,9.60
2007,09,29,12,18,4.80
2007,09,29,12,19,9.60
2007,09,29,12,20,4.80
2007,09,29,12,21,20.90
2007,09,29,12,22,14.50
2007,09,29,12,23,19.30
2007,09,29,12,24,25.70
2007,09,29,12,25,16.10
2007,09,29,12,26,16.10
2007,09,29,12,27,14.50
2007,09,29,12,28,24.20
2007,09,29,12,29,14.50
2007,09,29,12,30,14.50
2007,09,29,12,31,17.70
2007,09,29,12,32,20.90
2007,09,29,12,33,19.30
2007,09,29,12,34,16.10
2007,09,29,12,35,14.50
2007,09,29,12,36,19.30
2007,09,29,12,37,11.30
2007,09,29,12,38,16.10
2007,09,29,12,39,4.80
2007,09,29,12,40,11.30
2007,09,29,12,41,8.10
2007,09,29,12,42,22.50
2007,09,29,12,43,11.30
2007,09,29,12,44,8.10
2007,09,29,12,45,11.30
2007,09,29,12,46,6.40
2007,09,29,12,47,16.10
2007,09,29,12,48,9.60
2007,09,29,12,49,17.70
2007,09,29,12,50,16.10
2007,09,29,12,51,16.10
2007,09,29,12,52,9.60
2007,09,29,12,53,16.10
2007,09,29,12,54,19.30
2007,09,29,12,55,14.50
2007,09,29,12,56,11.30
2007,09,29,12,57,19.30
2007,09,29,12,58,8.10
2007,09,29,12,59,8.10
2007,09,29,13,00,6.40
2007,09,29,13,01,11.30
2007,09,29,13,02,11.30
2007,09,29,13,03,9.60
2007,09,29,13,04,9.60
2007,09,29,13,05,16.10
2007,09,29,13,06,14.50
2007,09,29,13,07,6.40
2007,09,29,13,08,9.60
2007,09,29,13,09,8.10
2007,09,29,13,10,14.50
2007,09,29,13,11,8.10
2007,09,29,13,12,16.10
2007,09,29,13,13,8.10
2007,09,29,13,14,9.60
2007,09,29,13,15,6.40
2007,09,29,13,16,11.30
2007,09,29,13,17,6.40
2007,09,29,13,18,8.10
2007,09,29,13,19,4.80
2007,09,29,13,20,8.10
2007,09,29,13,21,8.10
2007,09,29,13,22,8.10
2007,09,29,13,23,8.10
2007,09,29,13,24,14.50
2007,09,29,13,25,14.50
2007,09,29,13,26,8.10
2007,09,29,13,27,16.10
2007,09,29,13,28,11.30
2007,09,29,13,29,12.90
2007,09,29,13,30,6.40
2007,09,29,13,31,4.80
2007,09,29,13,32,14.50
2007,09,29,13,33,6.40
2007,09,29,13,34,6.40
2007,09,29,13,35,16.10
2007,09,29,13,36,11.30
2007,09,29,13,37,9.60
2007,09,29,13,38,17.70
2007,09,29,13,39,14.50
2007,09,29,13,40,14.50
2007,09,29,13,41,14.50
2007,09,29,13,42,3.20
2007,09,29,13,43,9.60
2007,09,29,13,44,11.30
2007,09,29,13,45,16.10
2007,09,29,13,46,17.70
2007,09,29,13,47,8.10
2007,09,29,13,48,6.40
2007,09,29,13,49,4.80
2007,09,29,13,50,14.50
2007,09,29,13,51,11.30
2007,09,29,13,52,22.50
2007,09,29,13,53,20.90
2007,09,29,13,54,16.10
2007,09,29,13,55,11.30
2007,09,29,13,56,16.10
2007,09,29,13,57,8.10
2007,09,29,13,58,16.10
2007,09,29,13,59,9.60
2007,09,29,14,00,12.90
2007,09,29,14,01,14.50
2007,09,29,14,02,20.90
2007,09,29,14,03,17.70
2007,09,29,14,04,24.20
2007,09,29,14,05,9.60
2007,09,29,14,06,17.70
2007,09,29,14,07,22.50
2007,09,29,14,08,22.50
2007,09,29,14,09,20.90
2007,09,29,14,10,14.50
2007,09,29,14,11,11.30
2007,09,29,14,12,4.80
2007,09,29,14,13,6.40
2007,09,29,14,14,12.90
2007,09,29,14,15,16.10
2007,09,29,14,16,9.60
2007,09,29,14,17,11.30
2007,09,29,14,18,12.90
2007,09,29,14,19,8.10
2007,09,29,14,20,3.20
2007,09,29,14,21,8.10
2007,09,29,14,22,14.50
2007,09,29,14,23,9.60
2007,09,29,14,24,22.50
2007,09,29,14,25,22.50
2007,09,29,14,26,20.90
2007,09,29,14,27,8.10
2007,09,29,14,28,12.90
2007,09,29,14,29,11.30
2007,09,29,14,30,11.30
2007,09,29,14,31,8.10
2007,09,29,14,32,16.10
2007,09,29,14,33,9.60
2007,09,29,14,34,4.80
2007,09,29,14,35,3.20
2007,09,29,14,36,4.80
2007,09,29,14,37,8.10
2007,09,29,14,38,6.40
2007,09,29,14,39,3.20
2007,09,29,14,40,8.10
2007,09,29,14,41,9.60
2007,09,29,14,42,9.60
2007,09,29,14,43,11.30
2007,09,29,14,44,9.60
2007,09,29,14,45,9.60
2007,09,29,14,46,11.30
2007,09,29,14,47,11.30
2007,09,29,14,48,11.30
2007,09,29,14,49,11.30
2007,09,29,14,50,8.10
2007,09,29,14,51,16.10
2007,09,29,14,52,9.60
2007,09,29,14,53,8.10
2007,09,29,14,54,11.30
2007,09,29,14,55,14.50
2007,09,29,14,56,19.30
2007,09,29,14,57,9.60
2007,09,29,14,58,16.10
2007,09,29,14,59,16.10
2007,09,29,15,00,19.30
2007,09,29,15,01,11.30
2007,09,29,15,02,12.90
2007,09,29,15,03,8.10
2007,09,29,15,04,17.70
2007,09,29,15,05,8.10
2007,09,29,15,06,6.40
2007,09,29,15,07,17.70
2007,09,29,15,08,12.90
2007,09,29,15,09,8.10
2007,09,29,15,10,20.90
2007,09,29,15,11,9.60
2007,09,29,15,12,11.30
2007,09,29,15,13,11.30
2007,09,29,15,14,9.60
2007,09,29,15,15,17.70
2007,09,29,15,16,17.70
2007,09,29,15,17,9.60
2007,09,29,15,18,19.30
2007,09,29,15,19,12.90
2007,09,29,15,20,14.50
2007,09,29,15,21,11.30
2007,09,29,15,22,19.30
2007,09,29,15,23,14.50
2007,09,29,15,24,12.90
2007,09,29,15,25,17.70
2007,09,29,15,26,16.10
2007,09,29,15,27,16.10
2007,09,29,15,28,20.90
2007,09,29,15,29,29.00
2007,09,29,15,30,11.30
2007,09,29,15,31,16.10
2007,09,29,15,32,14.50
2007,09,29,15,33,8.10
2007,09,29,15,34,9.60
2007,09,29,15,35,11.30
2007,09,29,15,36,4.80
2007,09,29,15,37,11.30
2007,09,29,15,38,12.90
2007,09,29,15,39,9.60
2007,09,29,15,40,4.80
2007,09,29,15,41,6.40
2007,09,29,15,42,8.10
2007,09,29,15,43,9.60
2007,09,29,15,44,11.30
2007,09,29,15,45,12.90
2007,09,29,15,46,19.30
2007,09,29,15,47,8.10
2007,09,29,15,48,8.10
2007,09,29,15,49,14.50
2007,09,29,15,50,20.90
2007,09,29,15,51,14.50
2007,09,29,15,52,16.10
2007,09,29,15,53,16.10
2007,09,29,15,54,17.70
2007,09,29,15,55,22.50
2007,09,29,15,56,8.10
2007,09,29,15,57,14.50
2007,09,29,15,58,16.10
2007,09,29,15,59,17.70
2007,09,29,16,00,9.60
2007,09,29,16,01,16.10
2007,09,29,16,02,14.50
2007,09,29,16,03,24.20
2007,09,29,16,04,16.10
2007,09,29,16,05,22.50
2007,09,29,16,06,14.50
2007,09,29,16,07,9.60
2007,09,29,16,08,16.10
2007,09,29,16,09,19.30
2007,09,29,16,10,22.50
2007,09,29,16,11,19.30
2007,09,29,16,12,6.40
2007,09,29,16,13,11.30
2007,09,29,16,14,14.50
2007,09,29,16,15,16.10
2007,09,29,16,16,9.60
2007,09,29,16,17,8.10
2007,09,29,16,18,14.50
2007,09,29,16,19,6.40
2007,09,29,16,20,17.70
2007,09,29,16,21,16.10
2007,09,29,16,22,16.10
2007,09,29,16,23,4.80
2007,09,29,16,24,8.10
2007,09,29,16,25,14.50
2007,09,29,16,26,9.60
2007,09,29,16,27,20.90
2007,09,29,16,28,11.30
2007,09,29,16,29,17.70
2007,09,29,16,30,22.50
2007,09,29,16,31,24.20
2007,09,29,16,32,17.70
2007,09,29,16,33,8.10
2007,09,29,16,34,9.60
2007,09,29,16,35,4.80
2007,09,29,16,36,19.30
2007,09,29,16,37,25.70
2007,09,29,16,38,9.60
2007,09,29,16,39,9.60
2007,09,29,16,40,14.50
2007,09,29,16,41,20.90
2007,09,29,16,42,11.30
2007,09,29,16,43,9.60
2007,09,29,16,44,14.50
2007,09,29,16,45,17.70
2007,09,29,16,46,11.30
2007,09,29,16,47,24.20
2007,09,29,16,48,17.70
2007,09,29,16,49,14.50
2007,09,29,16,50,22.50
2007,09,29,16,51,22.50
2007,09,29,16,52,22.50
2007,09,29,16,53,14.50
2007,09,29,16,54,19.30
2007,09,29,16,55,19.30
2007,09,29,16,56,24.20
2007,09,29,16,57,14.50
2007,09,29,16,58,14.50
2007,09,29,16,59,14.50
2007,09,29,17,00,11.30
2007,09,29,17,01,14.50
2007,09,29,17,02,20.90
2007,09,29,17,03,16.10
2007,09,29,17,04,16.10
2007,09,29,17,05,22.50
2007,09,29,17,06,20.90
2007,09,29,17,07,17.70
2007,09,29,17,08,6.40
2007,09,29,17,09,9.60
2007,09,29,17,10,11.30
2007,09,29,17,11,33.80
2007,09,29,17,12,17.70
2007,09,29,17,13,24.20
2007,09,29,17,14,17.70
2007,09,29,17,15,16.10
2007,09,29,17,16,9.60
2007,09,29,17,17,27.40
2007,09,29,17,18,17.70
2007,09,29,17,19,12.90
2007,09,29,17,20,17.70
2007,09,29,17,21,22.50
2007,09,29,17,22,9.60
2007,09,29,17,23,24.20
2007,09,29,17,24,22.50
2007,09,29,17,25,11.30
2007,09,29,17,26,22.50
2007,09,29,17,27,8.10
2007,09,29,17,28,22.50
2007,09,29,17,29,14.50
2007,09,29,17,30,8.10
2007,09,29,17,31,20.90
2007,09,29,17,32,17.70
2007,09,29,17,33,8.10
2007,09,29,17,34,17.70
2007,09,29,17,35,16.10
2007,09,29,17,36,16.10
2007,09,29,17,37,11.30
2007,09,29,17,38,19.30
2007,09,29,17,39,14.50
2007,09,29,17,40,11.30
2007,09,29,17,41,11.30
2007,09,29,17,42,30.60
2007,09,29,17,43,17.70
2007,09,29,17,44,16.10
2007,09,29,17,45,17.70
2007,09,29,17,46,11.30
2007,09,29,17,47,8.10